Tracking 28799 objects as of 18-Apr-2024
HD Live streaming from Space Station
objects crossing your sky now

CZ-3B DEB

Track CZ-3B DEB now!


NORAD ID: 40193
Int'l Code: 2011-077S
Perigee: 906.0 km
Apogee: 42,065.2 km
Inclination: 25.9 °
Period: 771.2 minutes
Semi major axis: 27856 km
RCS: Unknown
Launch date: December 19, 2011
Source: People's Republic of China (PRC)
Launch site: Xichang Space Center, China (XSC)

Note: This is SATELLITE DEBRIS
Your satellite tracking list
Your tracking list is empty




NASA's NSSDC Master Catalog

Two Line Element Set (TLE):
1 40193U 11077S   24095.70244646 -.00000280  00000-0 -51739-2 0  9995
2 40193  25.9486 242.7342 7387685 342.3556   1.5694  1.86728595 74422
Source of the keplerian elements: AFSPC